SITE: BDASc,YEAR: 2002,,,,,
2002date,time,pzhd (cm),DWT (cm),WT elev (m),,
01/01/02,0:00,189.8,209.4,1371.335,,1/1 00:00--3/21 09:30:
01/01/02,0:30,189.7,209.5,1371.334,,Depth to water table:
01/01/02,1:00,189.6,209.6,1371.333,,DWT = SCL - CH - h (all values in cm)
01/01/02,1:30,189.5,209.7,1371.332,,where
01/01/02,2:00,189.6,209.6,1371.333,,SCL = sensor cable length = 550.7 cm
01/01/02,2:30,189.6,209.6,1371.333,,CH = casing height of well = 151.5 cm
01/01/02,3:00,189.8,209.4,1371.335,,h = height of water above sensor (from pzhd column)
01/01/02,3:30,189.9,209.3,1371.336,,
01/01/02,4:00,189.9,209.3,1371.336,,WT elevation:
01/01/02,4:30,189.9,209.3,1371.336,,Sensor elev = 1369.437 m asl
01/01/02,5:00,189.9,209.3,1371.336,,WT elev = sensor elev + h (from pzhd column)
01/01/02,5:30,189.9,209.3,1371.336,,
01/01/02,6:00,189.9,209.3,1371.336,,
01/01/02,6:30,189.9,209.3,1371.336,,Dates w/missing data (#0.5 hr data points):
01/01/02,7:00,190.2,209.0,1371.339,,"1/22 (5), 3/1 (7), 3/21 (5), 12/11 (15)."
01/01/02,7:30,189.9,209.3,1371.336,,
01/01/02,8:00,189.8,209.4,1371.335,,
01/01/02,8:30,189.6,209.6,1371.333,,
01/01/02,9:00,189.5,209.7,1371.332,,
01/01/02,9:30,189.4,209.8,1371.331,,
01/01/02,10:00,189.7,209.5,1371.334,,
01/01/02,10:30,189.7,209.5,1371.334,,
01/01/02,11:00,190.1,209.1,1371.338,,
01/01/02,11:30,190.3,208.9,1371.340,,
01/01/02,12:00,190.3,208.9,1371.340,,
01/01/02,12:30,190.3,208.9,1371.340,,
01/01/02,13:00,190.4,208.8,1371.341,,
01/01/02,13:30,190.4,208.8,1371.341,,
01/01/02,14:00,190.3,208.9,1371.340,,
01/01/02,14:30,190.3,208.9,1371.340,,
01/01/02,15:00,190.3,208.9,1371.340,,
01/01/02,15:30,190.3,208.9,1371.340,,
01/01/02,16:00,190.3,208.9,1371.340,,
01/01/02,16:30,190.3,208.9,1371.340,,
01/01/02,17:00,190.3,208.9,1371.340,,
01/01/02,17:30,190.3,208.9,1371.340,,
01/01/02,18:00,190.3,208.9,1371.340,,
01/01/02,18:30,190.3,208.9,1371.340,,
01/01/02,19:00,190.3,208.9,1371.340,,
01/01/02,19:30,190.2,209.0,1371.339,,
01/01/02,20:00,190.3,208.9,1371.340,,
01/01/02,20:30,190.2,209.0,1371.339,,
01/01/02,21:00,190.1,209.1,1371.338,,
01/01/02,21:30,190.1,209.1,1371.338,,
01/01/02,22:00,190.1,209.1,1371.338,,
01/01/02,22:30,190.1,209.1,1371.338,,
01/01/02,23:00,190.1,209.1,1371.338,,
01/01/02,23:30,190.2,209.0,1371.339,,
01/02/02,0:00,190.1,209.1,1371.338,,
01/02/02,0:30,190.2,209.0,1371.339,,
01/02/02,1:00,190.1,209.1,1371.338,,
01/02/02,1:30,190.1,209.1,1371.338,,
01/02/02,2:00,190.1,209.1,1371.338,,
01/02/02,2:30,190.1,209.1,1371.338,,
01/02/02,3:00,190.2,209.0,1371.339,,
01/02/02,3:30,190.2,209.0,1371.339,,
01/02/02,4:00,190.3,208.9,1371.340,,
01/02/02,4:30,190.3,208.9,1371.340,,
01/02/02,5:00,190.3,208.9,1371.340,,
01/02/02,5:30,190.3,208.9,1371.340,,
01/02/02,6:00,190.3,208.9,1371.340,,
01/02/02,6:30,190.3,208.9,1371.340,,
01/02/02,7:00,190.2,209.0,1371.339,,
01/02/02,7:30,190.2,209.0,1371.339,,
01/02/02,8:00,190.2,209.0,1371.339,,
01/02/02,8:30,190.2,209.0,1371.339,,
01/02/02,9:00,190.2,209.0,1371.339,,
01/02/02,9:30,190.3,208.9,1371.340,,
01/02/02,10:00,190.3,208.9,1371.340,,
01/02/02,10:30,190.4,208.8,1371.341,,
01/02/02,11:00,190.5,208.7,1371.342,,
01/02/02,11:30,190.6,208.6,1371.343,,
01/02/02,12:00,190.7,208.5,1371.344,,
01/02/02,12:30,190.7,208.5,1371.344,,
01/02/02,13:00,190.7,208.5,1371.344,,
01/02/02,13:30,190.9,208.3,1371.346,,
01/02/02,14:00,190.9,208.3,1371.346,,
01/02/02,14:30,190.9,208.3,1371.346,,
01/02/02,15:00,190.8,208.4,1371.345,,
01/02/02,15:30,190.7,208.5,1371.344,,
01/02/02,16:00,190.8,208.4,1371.345,,
01/02/02,16:30,190.7,208.5,1371.344,,
01/02/02,17:00,190.7,208.5,1371.344,,
01/02/02,17:30,190.7,208.5,1371.344,,
01/02/02,18:00,190.7,208.5,1371.344,,
01/02/02,18:30,190.6,208.6,1371.343,,
01/02/02,19:00,190.6,208.6,1371.343,,
01/02/02,19:30,190.5,208.7,1371.342,,
01/02/02,20:00,190.6,208.6,1371.343,,
01/02/02,20:30,190.5,208.7,1371.342,,
01/02/02,21:00,190.5,208.7,1371.342,,
01/02/02,21:30,190.5,208.7,1371.342,,
01/02/02,22:00,190.5,208.7,1371.342,,
01/02/02,22:30,190.5,208.7,1371.342,,
01/02/02,23:00,190.5,208.7,1371.342,,
01/02/02,23:30,190.6,208.6,1371.343,,
01/03/02,0:00,190.6,208.6,1371.343,,
01/03/02,0:30,190.5,208.7,1371.342,,
01/03/02,1:00,190.4,208.8,1371.341,,
01/03/02,1:30,190.3,208.9,1371.340,,
01/03/02,2:00,190.3,208.9,1371.340,,
01/03/02,2:30,190.3,208.9,1371.340,,
01/03/02,3:00,190.3,208.9,1371.340,,
01/03/02,3:30,190.3,208.9,1371.340,,
01/03/02,4:00,190.3,208.9,1371.340,,
01/03/02,4:30,190.2,209.0,1371.339,,
01/03/02,5:00,190.3,208.9,1371.340,,
01/03/02,5:30,190.3,208.9,1371.340,,
01/03/02,6:00,190.2,209.0,1371.339,,
01/03/02,6:30,190.1,209.1,1371.338,,
01/03/02,7:00,190.2,209.0,1371.339,,
01/03/02,7:30,190.1,209.1,1371.338,,
01/03/02,8:00,190.1,209.1,1371.338,,
01/03/02,8:30,190.1,209.1,1371.338,,
01/03/02,9:00,190.2,209.0,1371.339,,
01/03/02,9:30,190.2,209.0,1371.339,,
01/03/02,10:00,190.2,209.0,1371.339,,
01/03/02,10:30,190.4,208.8,1371.341,,
01/03/02,11:00,190.6,208.6,1371.343,,
01/03/02,11:30,190.7,208.5,1371.344,,
01/03/02,12:00,190.7,208.5,1371.344,,
01/03/02,12:30,190.8,208.4,1371.345,,
01/03/02,13:00,190.9,208.3,1371.346,,
01/03/02,13:30,190.8,208.4,1371.345,,
01/03/02,14:00,190.9,208.3,1371.346,,
01/03/02,14:30,190.9,208.3,1371.346,,
01/03/02,15:00,190.8,208.4,1371.345,,
01/03/02,15:30,190.7,208.5,1371.344,,
01/03/02,16:00,190.7,208.5,1371.344,,
01/03/02,16:30,190.7,208.5,1371.344,,
01/03/02,17:00,190.7,208.5,1371.344,,
01/03/02,17:30,190.7,208.5,1371.344,,
01/03/02,18:00,190.7,208.5,1371.344,,
01/03/02,18:30,190.7,208.5,1371.344,,
01/03/02,19:00,190.6,208.6,1371.343,,
01/03/02,19:30,190.6,208.6,1371.343,,
01/03/02,20:00,190.6,208.6,1371.343,,
01/03/02,20:30,190.4,208.8,1371.341,,
01/03/02,21:00,190.4,208.8,1371.341,,
01/03/02,21:30,190.4,208.8,1371.341,,
01/03/02,22:00,190.4,208.8,1371.341,,
01/03/02,22:30,190.4,208.8,1371.341,,
01/03/02,23:00,190.4,208.8,1371.341,,
01/03/02,23:30,190.4,208.8,1371.341,,
01/04/02,0:00,190.4,208.8,1371.341,,
01/04/02,0:30,190.4,208.8,1371.341,,
01/04/02,1:00,190.4,208.8,1371.341,,
01/04/02,1:30,190.3,208.9,1371.340,,
01/04/02,2:00,190.3,208.9,1371.340,,
01/04/02,2:30,190.3,208.9,1371.340,,
01/04/02,3:00,190.3,208.9,1371.340,,
01/04/02,3:30,190.3,208.9,1371.340,,
01/04/02,4:00,190.3,208.9,1371.340,,
01/04/02,4:30,190.3,208.9,1371.340,,
01/04/02,5:00,190.2,209.0,1371.339,,
01/04/02,5:30,190.2,209.0,1371.339,,
01/04/02,6:00,190.2,209.0,1371.339,,
01/04/02,6:30,190.2,209.0,1371.339,,
01/04/02,7:00,190.2,209.0,1371.339,,
01/04/02,7:30,190.2,209.0,1371.339,,
01/04/02,8:00,190.2,209.0,1371.339,,
01/04/02,8:30,190.2,209.0,1371.339,,
01/04/02,9:00,190.3,208.9,1371.340,,
01/04/02,9:30,190.2,209.0,1371.339,,
01/04/02,10:00,190.3,208.9,1371.340,,
01/04/02,10:30,190.4,208.8,1371.341,,
01/04/02,11:00,190.6,208.6,1371.343,,
01/04/02,11:30,190.7,208.5,1371.344,,
01/04/02,12:00,190.9,208.3,1371.346,,
01/04/02,12:30,190.9,208.3,1371.346,,
01/04/02,13:00,190.9,208.3,1371.346,,
01/04/02,13:30,190.9,208.3,1371.346,,
01/04/02,14:00,190.8,208.4,1371.345,,
01/04/02,14:30,190.6,208.6,1371.343,,
01/04/02,15:00,190.6,208.6,1371.343,,
01/04/02,15:30,190.6,208.6,1371.343,,
01/04/02,16:00,190.6,208.6,1371.343,,
01/04/02,16:30,190.5,208.7,1371.342,,
01/04/02,17:00,190.3,208.9,1371.340,,
01/04/02,17:30,190.3,208.9,1371.340,,
01/04/02,18:00,190.2,209.0,1371.339,,
01/04/02,18:30,190.3,208.9,1371.340,,
01/04/02,19:00,190.2,209.0,1371.339,,
01/04/02,19:30,190.1,209.1,1371.338,,
01/04/02,20:00,190.0,209.2,1371.337,,
01/04/02,20:30,189.9,209.3,1371.336,,
01/04/02,21:00,189.9,209.3,1371.336,,
01/04/02,21:30,189.8,209.4,1371.335,,
01/04/02,22:00,189.7,209.5,1371.334,,
01/04/02,22:30,189.7,209.5,1371.334,,
01/04/02,23:00,189.7,209.5,1371.334,,
01/04/02,23:30,189.6,209.6,1371.333,,
01/05/02,0:00,189.6,209.6,1371.333,,
01/05/02,0:30,189.6,209.6,1371.333,,
01/05/02,1:00,189.5,209.7,1371.332,,
01/05/02,1:30,189.5,209.7,1371.332,,
01/05/02,2:00,189.4,209.8,1371.331,,
01/05/02,2:30,189.4,209.8,1371.331,,
01/05/02,3:00,189.4,209.8,1371.331,,
01/05/02,3:30,189.4,209.8,1371.331,,
01/05/02,4:00,189.3,209.9,1371.330,,
01/05/02,4:30,189.4,209.8,1371.331,,
01/05/02,5:00,189.3,209.9,1371.330,,
01/05/02,5:30,189.3,209.9,1371.330,,
01/05/02,6:00,189.2,210.0,1371.329,,
01/05/02,6:30,189.1,210.1,1371.328,,
01/05/02,7:00,189.1,210.1,1371.328,,
01/05/02,7:30,189.0,210.2,1371.327,,
01/05/02,8:00,189.0,210.2,1371.327,,
01/05/02,8:30,188.9,210.3,1371.326,,
01/05/02,9:00,189.0,210.2,1371.327,,
01/05/02,9:30,189.0,210.2,1371.327,,
01/05/02,10:00,189.0,210.2,1371.327,,
01/05/02,10:30,189.1,210.1,1371.328,,
01/05/02,11:00,189.3,209.9,1371.330,,
01/05/02,11:30,189.5,209.7,1371.332,,
01/05/02,12:00,189.6,209.6,1371.333,,
01/05/02,12:30,189.7,209.5,1371.334,,
01/05/02,13:00,189.7,209.5,1371.334,,
01/05/02,13:30,189.8,209.4,1371.335,,
01/05/02,14:00,189.7,209.5,1371.334,,
01/05/02,14:30,189.7,209.5,1371.334,,
01/05/02,15:00,189.7,209.5,1371.334,,
01/05/02,15:30,189.7,209.5,1371.334,,
01/05/02,16:00,189.7,209.5,1371.334,,
01/05/02,16:30,189.7,209.5,1371.334,,
01/05/02,17:00,189.7,209.5,1371.334,,
01/05/02,17:30,189.6,209.6,1371.333,,
01/05/02,18:00,189.6,209.6,1371.333,,
01/05/02,18:30,189.6,209.6,1371.333,,
01/05/02,19:00,189.5,209.7,1371.332,,
01/05/02,19:30,189.5,209.7,1371.332,,
01/05/02,20:00,189.4,209.8,1371.331,,
01/05/02,20:30,189.4,209.8,1371.331,,
01/05/02,21:00,189.3,209.9,1371.330,,
01/05/02,21:30,189.2,210.0,1371.329,,
01/05/02,22:00,189.2,210.0,1371.329,,
01/05/02,22:30,189.2,210.0,1371.329,,
01/05/02,23:00,189.2,210.0,1371.329,,
01/05/02,23:30,189.3,209.9,1371.330,,
01/06/02,0:00,189.3,209.9,1371.330,,
01/06/02,0:30,189.3,209.9,1371.330,,
01/06/02,1:00,189.3,209.9,1371.330,,
01/06/02,1:30,189.2,210.0,1371.329,,
01/06/02,2:00,189.2,210.0,1371.329,,
01/06/02,2:30,189.2,210.0,1371.329,,
01/06/02,3:00,189.2,210.0,1371.329,,
01/06/02,3:30,189.3,209.9,1371.330,,
01/06/02,4:00,189.3,209.9,1371.330,,
01/06/02,4:30,189.3,209.9,1371.330,,
01/06/02,5:00,189.3,209.9,1371.330,,
01/06/02,5:30,189.3,209.9,1371.330,,
01/06/02,6:00,189.2,210.0,1371.329,,
01/06/02,6:30,189.2,210.0,1371.329,,
01/06/02,7:00,189.1,210.1,1371.328,,
01/06/02,7:30,189.2,210.0,1371.329,,
01/06/02,8:00,189.1,210.1,1371.328,,
01/06/02,8:30,189.1,210.1,1371.328,,
01/06/02,9:00,189.2,210.0,1371.329,,
01/06/02,9:30,189.3,209.9,1371.330,,
01/06/02,10:00,189.3,209.9,1371.330,,
01/06/02,10:30,189.5,209.7,1371.332,,
01/06/02,11:00,189.7,209.5,1371.334,,
01/06/02,11:30,189.7,209.5,1371.334,,
01/06/02,12:00,189.9,209.3,1371.336,,
01/06/02,12:30,190.0,209.2,1371.337,,
01/06/02,13:00,190.1,209.1,1371.338,,
01/06/02,13:30,190.1,209.1,1371.338,,
01/06/02,14:00,190.1,209.1,1371.338,,
01/06/02,14:30,190.0,209.2,1371.337,,
01/06/02,15:00,190.0,209.2,1371.337,,
01/06/02,15:30,190.0,209.2,1371.337,,
01/06/02,16:00,190.0,209.2,1371.337,,
01/06/02,16:30,189.9,209.3,1371.336,,
01/06/02,17:00,189.9,209.3,1371.336,,
01/06/02,17:30,189.9,209.3,1371.336,,
01/06/02,18:00,189.9,209.3,1371.336,,
01/06/02,18:30,189.8,209.4,1371.335,,
01/06/02,19:00,189.7,209.5,1371.334,,
01/06/02,19:30,189.7,209.5,1371.334,,
01/06/02,20:00,189.7,209.5,1371.334,,
01/06/02,20:30,189.6,209.6,1371.333,,
01/06/02,21:00,189.6,209.6,1371.333,,
01/06/02,21:30,189.5,209.7,1371.332,,
01/06/02,22:00,189.5,209.7,1371.332,,
01/06/02,22:30,189.6,209.6,1371.333,,
01/06/02,23:00,189.6,209.6,1371.333,,
01/06/02,23:30,189.6,209.6,1371.333,,
01/07/02,0:00,189.6,209.6,1371.333,,
01/07/02,0:30,189.7,209.5,1371.334,,
01/07/02,1:00,189.6,209.6,1371.333,,
01/07/02,1:30,189.6,209.6,1371.333,,
01/07/02,2:00,189.6,209.6,1371.333,,
01/07/02,2:30,189.7,209.5,1371.334,,
01/07/02,3:00,189.7,209.5,1371.334,,
01/07/02,3:30,189.7,209.5,1371.334,,
01/07/02,4:00,189.8,209.4,1371.335,,
01/07/02,4:30,189.8,209.4,1371.335,,
01/07/02,5:00,189.8,209.4,1371.335,,
01/07/02,5:30,189.8,209.4,1371.335,,
01/07/02,6:00,189.7,209.5,1371.334,,
01/07/02,6:30,189.7,209.5,1371.334,,
01/07/02,7:00,189.7,209.5,1371.334,,
01/07/02,7:30,189.6,209.6,1371.333,,
01/07/02,8:00,189.6,209.6,1371.333,,
01/07/02,8:30,189.7,209.5,1371.334,,
01/07/02,9:00,189.7,209.5,1371.334,,
01/07/02,9:30,189.8,209.4,1371.335,,
01/07/02,10:00,189.8,209.4,1371.335,,
01/07/02,10:30,189.9,209.3,1371.336,,
01/07/02,11:00,190.2,209.0,1371.339,,
01/07/02,11:30,190.3,208.9,1371.340,,
01/07/02,12:00,190.4,208.8,1371.341,,
01/07/02,12:30,190.5,208.7,1371.342,,
01/07/02,13:00,190.7,208.5,1371.344,,
01/07/02,13:30,190.7,208.5,1371.344,,
01/07/02,14:00,190.7,208.5,1371.344,,
01/07/02,14:30,190.7,208.5,1371.344,,
01/07/02,15:00,190.6,208.6,1371.343,,
01/07/02,15:30,190.6,208.6,1371.343,,
01/07/02,16:00,190.6,208.6,1371.343,,
01/07/02,16:30,190.5,208.7,1371.342,,
01/07/02,17:00,190.5,208.7,1371.342,,
01/07/02,17:30,190.4,208.8,1371.341,,
01/07/02,18:00,190.3,208.9,1371.340,,
01/07/02,18:30,190.3,208.9,1371.340,,
01/07/02,19:00,190.3,208.9,1371.340,,
01/07/02,19:30,190.3,208.9,1371.340,,
01/07/02,20:00,190.2,209.0,1371.339,,
01/07/02,20:30,190.1,209.1,1371.338,,
01/07/02,21:00,190.1,209.1,1371.338,,
01/07/02,21:30,189.9,209.3,1371.336,,
01/07/02,22:00,189.9,209.3,1371.336,,
01/07/02,22:30,189.9,209.3,1371.336,,
01/07/02,23:00,189.9,209.3,1371.336,,
01/07/02,23:30,189.9,209.3,1371.336,,
01/08/02,0:00,190.0,209.2,1371.337,,
01/08/02,0:30,190.1,209.1,1371.338,,
01/08/02,1:00,190.0,209.2,1371.337,,
01/08/02,1:30,190.1,209.1,1371.338,,
01/08/02,2:00,190.1,209.1,1371.338,,
01/08/02,2:30,190.1,209.1,1371.338,,
01/08/02,3:00,190.0,209.2,1371.337,,
01/08/02,3:30,190.1,209.1,1371.338,,
01/08/02,4:00,190.1,209.1,1371.338,,
01/08/02,4:30,190.1,209.1,1371.338,,
01/08/02,5:00,190.1,209.1,1371.338,,
01/08/02,5:30,190.2,209.0,1371.339,,
01/08/02,6:00,190.1,209.1,1371.338,,
01/08/02,6:30,190.0,209.2,1371.337,,
01/08/02,7:00,190.0,209.2,1371.337,,
01/08/02,7:30,190.0,209.2,1371.337,,
01/08/02,8:00,189.9,209.3,1371.336,,
01/08/02,8:30,190.0,209.2,1371.337,,
01/08/02,9:00,190.0,209.2,1371.337,,
01/08/02,9:30,189.9,209.3,1371.336,,
01/08/02,10:00,190.0,209.2,1371.337,,
01/08/02,10:30,190.1,209.1,1371.338,,
01/08/02,11:00,190.3,208.9,1371.340,,
01/08/02,11:30,190.4,208.8,1371.341,,
01/08/02,12:00,190.5,208.7,1371.342,,
01/08/02,12:30,190.6,208.6,1371.343,,
01/08/02,13:00,190.6,208.6,1371.343,,
01/08/02,13:30,190.7,208.5,1371.344,,
01/08/02,14:00,190.7,208.5,1371.344,,
01/08/02,14:30,190.7,208.5,1371.344,,
01/08/02,15:00,190.7,208.5,1371.344,,
01/08/02,15:30,190.6,208.6,1371.343,,
01/08/02,16:00,190.6,208.6,1371.343,,
01/08/02,16:30,190.6,208.6,1371.343,,
01/08/02,17:00,190.6,208.6,1371.343,,
01/08/02,17:30,190.5,208.7,1371.342,,
01/08/02,18:00,190.4,208.8,1371.341,,
01/08/02,18:30,190.4,208.8,1371.341,,
01/08/02,19:00,190.3,208.9,1371.340,,
01/08/02,19:30,190.3,208.9,1371.340,,
01/08/02,20:00,190.3,208.9,1371.340,,
01/08/02,20:30,190.2,209.0,1371.339,,
01/08/02,21:00,190.1,209.1,1371.338,,
01/08/02,21:30,190.1,209.1,1371.338,,
01/08/02,22:00,190.0,209.2,1371.337,,
01/08/02,22:30,190.0,209.2,1371.337,,
01/08/02,23:00,190.0,209.2,1371.337,,
01/08/02,23:30,190.0,209.2,1371.337,,
01/09/02,0:00,190.0,209.2,1371.337,,
01/09/02,0:30,190.1,209.1,1371.338,,
01/09/02,1:00,190.1,209.1,1371.338,,
01/09/02,1:30,190.0,209.2,1371.337,,
01/09/02,2:00,190.0,209.2,1371.337,,
01/09/02,2:30,190.0,209.2,1371.337,,
01/09/02,3:00,190.0,209.2,1371.337,,
01/09/02,3:30,190.0,209.2,1371.337,,
01/09/02,4:00,190.0,209.2,1371.337,,
01/09/02,4:30,190.0,209.2,1371.337,,
01/09/02,5:00,190.1,209.1,1371.338,,
01/09/02,5:30,190.0,209.2,1371.337,,
01/09/02,6:00,190.0,209.2,1371.337,,
01/09/02,6:30,189.9,209.3,1371.336,,
01/09/02,7:00,189.9,209.3,1371.336,,
01/09/02,7:30,189.8,209.4,1371.335,,
01/09/02,8:00,189.9,209.3,1371.336,,
01/09/02,8:30,189.9,209.3,1371.336,,
01/09/02,9:00,189.9,209.3,1371.336,,
01/09/02,9:30,190.0,209.2,1371.337,,
01/09/02,10:00,190.1,209.1,1371.338,,
01/09/02,10:30,190.1,209.1,1371.338,,
01/09/02,11:00,190.2,209.0,1371.339,,
01/09/02,11:30,190.3,208.9,1371.340,,
01/09/02,12:00,190.4,208.8,1371.341,,
01/09/02,12:30,190.5,208.7,1371.342,,
01/09/02,13:00,190.7,208.5,1371.344,,
01/09/02,13:30,190.7,208.5,1371.344,,
01/09/02,14:00,190.7,208.5,1371.344,,
01/09/02,14:30,190.7,208.5,1371.344,,
01/09/02,15:00,190.7,208.5,1371.344,,
01/09/02,15:30,190.6,208.6,1371.343,,
01/09/02,16:00,190.6,208.6,1371.343,,
01/09/02,16:30,190.6,208.6,1371.343,,
01/09/02,17:00,190.6,208.6,1371.343,,
01/09/02,17:30,190.6,208.6,1371.343,,
01/09/02,18:00,190.5,208.7,1371.342,,
01/09/02,18:30,190.3,208.9,1371.340,,
01/09/02,19:00,190.3,208.9,1371.340,,
01/09/02,19:30,190.3,208.9,1371.340,,
01/09/02,20:00,190.3,208.9,1371.340,,
01/09/02,20:30,190.3,208.9,1371.340,,
01/09/02,21:00,190.1,209.1,1371.338,,
01/09/02,21:30,190.1,209.1,1371.338,,
01/09/02,22:00,189.9,209.3,1371.336,,
01/09/02,22:30,189.9,209.3,1371.336,,
01/09/02,23:00,189.9,209.3,1371.336,,
01/09/02,23:30,189.9,209.3,1371.336,,
01/10/02,0:00,189.9,209.3,1371.336,,
01/10/02,0:30,189.9,209.3,1371.336,,
01/10/02,1:00,189.9,209.3,1371.336,,
01/10/02,1:30,189.9,209.3,1371.336,,
01/10/02,2:00,189.9,209.3,1371.336,,
01/10/02,2:30,189.9,209.3,1371.336,,
01/10/02,3:00,189.9,209.3,1371.336,,
01/10/02,3:30,189.8,209.4,1371.335,,
01/10/02,4:00,189.9,209.3,1371.336,,
01/10/02,4:30,190.0,209.2,1371.337,,
01/10/02,5:00,189.9,209.3,1371.336,,
01/10/02,5:30,189.9,209.3,1371.336,,
01/10/02,6:00,189.8,209.4,1371.335,,
01/10/02,6:30,189.7,209.5,1371.334,,
01/10/02,7:00,189.7,209.5,1371.334,,
01/10/02,7:30,189.8,209.4,1371.335,,
01/10/02,8:00,189.7,209.5,1371.334,,
01/10/02,8:30,189.7,209.5,1371.334,,
01/10/02,9:00,189.6,209.6,1371.333,,
01/10/02,9:30,189.6,209.6,1371.333,,
01/10/02,10:00,189.7,209.5,1371.334,,
01/10/02,10:30,189.7,209.5,1371.334,,
01/10/02,11:00,189.7,209.5,1371.334,,
01/10/02,11:30,189.9,209.3,1371.336,,
01/10/02,12:00,189.9,209.3,1371.336,,
01/10/02,12:30,190.0,209.2,1371.337,,
01/10/02,13:00,190.1,209.1,1371.338,,
01/10/02,13:30,190.1,209.1,1371.338,,
01/10/02,14:00,190.1,209.1,1371.338,,
01/10/02,14:30,190.1,209.1,1371.338,,
01/10/02,15:00,189.9,209.3,1371.336,,
01/10/02,15:30,189.8,209.4,1371.335,,
01/10/02,16:00,189.8,209.4,1371.335,,
01/10/02,16:30,189.6,209.6,1371.333,,
01/10/02,17:00,189.5,209.7,1371.332,,
01/10/02,17:30,189.4,209.8,1371.331,,
01/10/02,18:00,189.3,209.9,1371.330,,
01/10/02,18:30,189.1,210.1,1371.328,,
01/10/02,19:00,189.1,210.1,1371.328,,
01/10/02,19:30,189.1,210.1,1371.328,,
01/10/02,20:00,189.1,210.1,1371.328,,
01/10/02,20:30,189.1,210.1,1371.328,,
01/10/02,21:00,189.1,210.1,1371.328,,
01/10/02,21:30,189.1,210.1,1371.328,,
01/10/02,22:00,189.0,210.2,1371.327,,
01/10/02,22:30,189.0,210.2,1371.327,,
01/10/02,23:00,188.9,210.3,1371.326,,
01/10/02,23:30,188.9,210.3,1371.326,,
01/11/02,0:00,188.9,210.3,1371.326,,
01/11/02,0:30,188.9,210.3,1371.326,,
01/11/02,1:00,188.9,210.3,1371.326,,
01/11/02,1:30,189.0,210.2,1371.327,,
01/11/02,2:00,188.9,210.3,1371.326,,
01/11/02,2:30,189.0,210.2,1371.327,,
01/11/02,3:00,189.0,210.2,1371.327,,
01/11/02,3:30,189.1,210.1,1371.328,,
01/11/02,4:00,189.1,210.1,1371.328,,
01/11/02,4:30,189.1,210.1,1371.328,,
01/11/02,5:00,189.2,210.0,1371.329,,
01/11/02,5:30,189.1,210.1,1371.328,,
01/11/02,6:00,189.1,210.1,1371.328,,
01/11/02,6:30,189.1,210.1,1371.328,,
01/11/02,7:00,189.1,210.1,1371.328,,
01/11/02,7:30,189.0,210.2,1371.327,,
01/11/02,8:00,189.1,210.1,1371.328,,
01/11/02,8:30,189.1,210.1,1371.328,,
01/11/02,9:00,189.1,210.1,1371.328,,
01/11/02,9:30,189.1,210.1,1371.328,,
01/11/02,10:00,189.2,210.0,1371.329,,
01/11/02,10:30,189.3,209.9,1371.330,,
01/11/02,11:00,189.5,209.7,1371.332,,
01/11/02,11:30,189.7,209.5,1371.334,,
01/11/02,12:00,189.8,209.4,1371.335,,
01/11/02,12:30,189.9,209.3,1371.336,,
01/11/02,13:00,189.9,209.3,1371.336,,
01/11/02,13:30,189.9,209.3,1371.336,,
01/11/02,14:00,190.0,209.2,1371.337,,
01/11/02,14:30,190.0,209.2,1371.337,,
01/11/02,15:00,190.0,209.2,1371.337,,
01/11/02,15:30,190.0,209.2,1371.337,,
01/11/02,16:00,189.9,209.3,1371.336,,
01/11/02,16:30,189.8,209.4,1371.335,,
01/11/02,17:00,189.8,209.4,1371.335,,
01/11/02,17:30,189.8,209.4,1371.335,,
01/11/02,18:00,189.8,209.4,1371.335,,
01/11/02,18:30,189.7,209.5,1371.334,,
01/11/02,19:00,189.7,209.5,1371.334,,
01/11/02,19:30,189.6,209.6,1371.333,,
01/11/02,20:00,189.6,209.6,1371.333,,
01/11/02,20:30,189.6,209.6,1371.333,,
01/11/02,21:00,189.6,209.6,1371.333,,
01/11/02,21:30,189.5,209.7,1371.332,,
01/11/02,22:00,189.4,209.8,1371.331,,
01/11/02,22:30,189.3,209.9,1371.330,,
01/11/02,23:00,189.3,209.9,1371.330,,
01/11/02,23:30,189.3,209.9,1371.330,,
01/12/02,0:00,189.3,209.9,1371.330,,
01/12/02,0:30,189.3,209.9,1371.330,,
01/12/02,1:00,189.2,210.0,1371.329,,
01/12/02,1:30,189.3,209.9,1371.330,,
01/12/02,2:00,189.2,210.0,1371.329,,
01/12/02,2:30,189.3,209.9,1371.330,,
01/12/02,3:00,189.4,209.8,1371.331,,
01/12/02,3:30,189.4,209.8,1371.331,,
01/12/02,4:00,189.4,209.8,1371.331,,
01/12/02,4:30,189.4,209.8,1371.331,,
01/12/02,5:00,189.4,209.8,1371.331,,
01/12/02,5:30,189.5,209.7,1371.332,,
01/12/02,6:00,189.4,209.8,1371.331,,
01/12/02,6:30,189.4,209.8,1371.331,,
01/12/02,7:00,189.5,209.7,1371.332,,
01/12/02,7:30,189.6,209.6,1371.333,,
01/12/02,8:00,189.6,209.6,1371.333,,
01/12/02,8:30,189.7,209.5,1371.334,,
01/12/02,9:00,189.8,209.4,1371.335,,
01/12/02,9:30,189.8,209.4,1371.335,,
01/12/02,10:00,189.8,209.4,1371.335,,
01/12/02,10:30,190.0,209.2,1371.337,,
01/12/02,11:00,190.2,209.0,1371.339,,
01/12/02,11:30,190.3,208.9,1371.340,,
01/12/02,12:00,190.5,208.7,1371.342,,
01/12/02,12:30,190.6,208.6,1371.343,,
01/12/02,13:00,190.7,208.5,1371.344,,
01/12/02,13:30,191.5,207.7,1371.352,,
01/12/02,14:00,191.3,207.9,1371.350,,
01/12/02,14:30,191.2,208.0,1371.349,,
01/12/02,15:00,191.0,208.2,1371.347,,
01/12/02,15:30,191.1,208.1,1371.348,,
01/12/02,16:00,191.0,208.2,1371.347,,
01/12/02,16:30,191.0,208.2,1371.347,,
01/12/02,17:00,191.0,208.2,1371.347,,
01/12/02,17:30,191.0,208.2,1371.347,,
01/12/02,18:00,190.9,208.3,1371.346,,
01/12/02,18:30,190.9,208.3,1371.346,,
01/12/02,19:00,190.9,208.3,1371.346,,
01/12/02,19:30,190.9,208.3,1371.346,,
01/12/02,20:00,190.9,208.3,1371.346,,
01/12/02,20:30,190.7,208.5,1371.344,,
01/12/02,21:00,190.8,208.4,1371.345,,
01/12/02,21:30,190.8,208.4,1371.345,,
01/12/02,22:00,190.7,208.5,1371.344,,
01/12/02,22:30,190.8,208.4,1371.345,,
01/12/02,23:00,190.8,208.4,1371.345,,
01/12/02,23:30,190.8,208.4,1371.345,,
01/13/02,0:00,190.9,208.3,1371.346,,
01/13/02,0:30,191.0,208.2,1371.347,,
01/13/02,1:00,191.0,208.2,1371.347,,
01/13/02,1:30,191.0,208.2,1371.347,,
01/13/02,2:00,191.1,208.1,1371.348,,
01/13/02,2:30,191.1,208.1,1371.348,,
01/13/02,3:00,191.1,208.1,1371.348,,
01/13/02,3:30,191.2,208.0,1371.349,,
01/13/02,4:00,191.2,208.0,1371.349,,
01/13/02,4:30,191.2,208.0,1371.349,,
01/13/02,5:00,191.2,208.0,1371.349,,
01/13/02,5:30,191.1,208.1,1371.348,,
01/13/02,6:00,191.2,208.0,1371.349,,
01/13/02,6:30,191.2,208.0,1371.349,,
01/13/02,7:00,191.1,208.1,1371.348,,
01/13/02,7:30,191.2,208.0,1371.349,,
01/13/02,8:00,191.1,208.1,1371.348,,
01/13/02,8:30,191.2,208.0,1371.349,,
01/13/02,9:00,191.2,208.0,1371.349,,
01/13/02,9:30,191.2,208.0,1371.349,,
01/13/02,10:00,191.3,207.9,1371.350,,
01/13/02,10:30,191.4,207.8,1371.351,,
01/13/02,11:00,191.5,207.7,1371.352,,
01/13/02,11:30,191.6,207.6,1371.353,,
01/13/02,12:00,191.7,207.5,1371.354,,
01/13/02,12:30,191.8,207.4,1371.355,,
01/13/02,13:00,191.9,207.3,1371.356,,
01/13/02,13:30,192.0,207.2,1371.357,,
01/13/02,14:00,191.9,207.3,1371.356,,
01/13/02,14:30,191.9,207.3,1371.356,,
01/13/02,15:00,191.8,207.4,1371.355,,
01/13/02,15:30,191.8,207.4,1371.355,,
01/13/02,16:00,191.9,207.3,1371.356,,
01/13/02,16:30,191.8,207.4,1371.355,,